User: anonymous   Login
Location: Caltech
(34.1382°N, 118.1253°W)
Time: 12:03:58
(UTC-08:00)
Language:

ALOS - Orbit

View from above orbital plane
View from above orbital plane
View from above satellite
View from above satellite

Ground track
Ground track

The orbit data is extracted from the following two-line orbital elements,

1 28931U 06002A   15030.55559056  .00000895  00000-0  18892-3 0  1715
2 28931 097.9535 085.3461 0001676 130.5515 229.5834 14.61637345480533
Epoch (UTC): 30 January 2015 13:20:03
Eccentricity: 0.0001676
inclination: 97.9535°
perigee height: 687 km
apogee height: 689 km
right ascension of ascending node: 85.3461°
argument of perigee: 130.5515°
revolutions per day: 14.61637345
mean anomaly at epoch: 229.5834°
orbit number at epoch: 48053

The dashed part of the orbit path shows where the satellite is in the earth's shadow,  

DLR